Regional Weather Roundup
Issued by NWS

Home | Current Version | Previous Version | Text Only | Print | Product List | Glossary On
Versions: 1 2 3 4 5 6 7 8 9 10 11 12 13 14 15 16 17 18 19 20 21 22 23 24 25 26 27 28 29 30 31 32 33 34 35 36 37 38 39 40 41 42 43 44 45 46 47 48 49 50
000
ASUS43 KLMK 301310
RWRKY
KENTUCKY REGIONAL WEATHER ROUNDUP
NATIONAL WEATHER SERVICE LOUISVILLE KY
900 AM EDT SAT JUL 30 2016

NOTE "FAIR" INDICATES FEW OR NO CLOUDS BELOW 12,000 FEET
WITH NO SIGNIFICANT WEATHER AND/OR OBSTRUCTIONS TO VISIBILITY.

KYZ001>023-026-027-061>063-070>075-301400-
WESTERN AND SOUTH CENTRAL KENTUCKY

CITY           SKY/WX    TMP DP  RH WIND       PRES   REMARKS
PADUCAH        MOSUNNY   73  70  90 SW5       29.98R
HENDERSON      PTSUNNY   75  70  83 SW5       29.96S
OWENSBORO      PTSUNNY   75  74  97 SW7       29.98S FOG
HOPKINSVILLE   PTSUNNY   73  72  94 SW9       30.00R
BOWLING GREEN  CLOUDY    75  71  87 SW10      29.99S
GLASGOW        CLOUDY    75  74  96 SW7       30.00S
$$

KYZ024-025-028>034-038-045-046-053-301400-
NORTH CENTRAL KENTUCKY

CITY           SKY/WX    TMP DP  RH WIND       PRES   REMARKS
LOUISVILLE/SDF CLOUDY    75  70  84 VRB5      29.98R HAZE
LOUISVILLE/LOU CLOUDY    74  70  87 W3        29.98R FOG
FORT KNOX      CLOUDY    72  72 100 W5        29.98R
$$

KYZ035>037-039>044-047>052-055>060-089>105-301400-
NORTHEAST KENTUCKY

CITY           SKY/WX    TMP DP  RH WIND       PRES   REMARKS
LEXINGTON      PTSUNNY   74  71  91 SW6       29.99S
COVINGTON      FOG       72  72 100 W3        29.98R VSB 1/2
FRANKFORT      FOG       72  69  90 SW5       29.98R VSB 1
$$

KYZ054-064>069-076>088-106>120-301400-
SOUTHEAST KENTUCKY

CITY           SKY/WX    TMP DP  RH WIND       PRES   REMARKS
JACKSON        CLOUDY    71  69  93 CALM      30.02S
LONDON         MOSUNNY   74  68  81 SW6       30.02S
SOMERSET       CLOUDY    72  72 100 SW3       30.03R
MIDDLESBORO    PTSUNNY   72  72 100 CALM      30.04R
MONTICELLO     CLOUDY   N/A N/A N/A NW9       30.04R
$$




USA.gov is the U.S. government's official web portal to all federal, state and local government web resources and services.